When you browse on this site, cookies collect data to enhance your experience and personalize the content and advertising you see.
Visit our Privacy Policy to learn more. By continuing to use the site, you agree to this use of cookies and data.
  • In Romania
  • List of Countries
  • For 7 days
  • Water Temperature
  • Satellite Maps
  • Weather Map
  • Weather Widgets
  • user-avatar
    Login

    Hourly Weather Sankt Polten

    Today, 17 June, Monday

    Time Temperature Precipitation Wind Pressure Humidity
    00:00 +16°C° 0 mm 1 mps 739 mmHg 93%
    01:00 +16°C° 0 mm 1 mps 739 mmHg 94%
    02:00 +16°C° 0 mm 1 mps 739 mmHg 94%
    03:00 +15°C° 0 mm 1 mps 739 mmHg 94%
    04:00 +15°C° 0 mm 1 mps 739 mmHg 95%
    05:00 +16°C° 0 mm 1 mps 739 mmHg 91%
    06:00 +18°C° 0 mm 1 mps 739 mmHg 87%
    07:00 +20°C° 0 mm 1 mps 739 mmHg 84%
    08:00 +21°C° 0 mm 1 mps 739 mmHg 77%
    09:00 +22°C° 0 mm 1 mps 739 mmHg 70%
    10:00 +24°C° 0 mm 1 mps 739 mmHg 62%
    11:00 +24°C° 0 mm 2 mps 739 mmHg 62%
    12:00 +25°C° 0 mm 2 mps 739 mmHg 61%
    13:00 +25°C° 0 mm 3 mps 738 mmHg 60%
    14:00 +25°C° 0 mm 3 mps 738 mmHg 61%
    15:00 +25°C° 0 mm 3 mps 738 mmHg 61%
    16:00 +25°C° 0 mm 4 mps 738 mmHg 62%
    17:00 +24°C° 0 mm 3 mps 738 mmHg 68%
    18:00 +22°C° 0 mm 3 mps 738 mmHg 73%
    19:00 +20°C° 0 mm 2 mps 737 mmHg 79%
    20:00 +19°C° 0 mm 2 mps 738 mmHg 83%
    21:00 +19°C° 0 mm 1 mps 738 mmHg 86%
    22:00 +18°C° 0 mm 1 mps 738 mmHg 90%
    23:00 +16°C° 0 mm 1 mps 738 mmHg 90%

    Tomorrow, 18 June, Tuesday

    Time Temperature Precipitation Wind Pressure Humidity
    00:00 +16°C° 0 mm 1 mps 737 mmHg 90%
    01:00 +15°C° 0 mm 1 mps 737 mmHg 90%
    02:00 +15°C° 0 mm 1 mps 737 mmHg 90%
    03:00 +15°C° 0 mm 1 mps 737 mmHg 90%
    04:00 +14°C° 0 mm 1 mps 736 mmHg 91%
    05:00 +16°C° 0 mm 1 mps 737 mmHg 85%
    06:00 +19°C° 0 mm 1 mps 737 mmHg 80%
    07:00 +20°C° 0 mm 1 mps 737 mmHg 74%
    08:00 +22°C° 0 mm 1 mps 737 mmHg 70%
    09:00 +24°C° 0 mm 2 mps 737 mmHg 65%
    10:00 +25°C° 0 mm 2 mps 737 mmHg 60%
    11:00 +26°C° 0 mm 2 mps 736 mmHg 59%
    12:00 +27°C° 0 mm 3 mps 736 mmHg 59%
    13:00 +28°C° 0 mm 3 mps 735 mmHg 58%
    14:00 +28°C° 0.1 mm 3 mps 735 mmHg 58%
    15:00 +28°C° 0.1 mm 3 mps 735 mmHg 58%
    16:00 +28°C° 0.1 mm 3 mps 735 mmHg 58%
    17:00 +27°C° 0.1 mm 3 mps 734 mmHg 66%
    18:00 +26°C° 0.1 mm 2 mps 734 mmHg 74%
    19:00 +24°C° 0.1 mm 2 mps 734 mmHg 82%
    20:00 +23°C° 0.1 mm 2 mps 734 mmHg 86%
    21:00 +21°C° 0.1 mm 1 mps 735 mmHg 89%
    22:00 +20°C° 0.1 mm 1 mps 735 mmHg 93%
    23:00 +20°C° 0.2 mm 1 mps 735 mmHg 93%

    Day after tomorrow, 19 June, Wednesday

    Time Temperature Precipitation Wind Pressure Humidity
    00:00 +19°C° 0.2 mm 1 mps 734 mmHg 93%
    01:00 +19°C° 0.2 mm 1 mps 734 mmHg 94%
    02:00 +19°C° 0.1 mm 1 mps 734 mmHg 94%
    03:00 +18°C° 0.1 mm 1 mps 734 mmHg 94%
    04:00 +18°C° 0.1 mm 1 mps 734 mmHg 94%
    05:00 +18°C° 0 mm 0 mps 734 mmHg 91%
    06:00 +19°C° 0 mm 0 mps 734 mmHg 89%
    07:00 +21°C° 0 mm 0 mps 734 mmHg 86%
    08:00 +22°C° 0 mm 0 mps 734 mmHg 78%
    09:00 +26°C° 0 mm 1 mps 734 mmHg 70%
    10:00 +28°C° 0 mm 1 mps 734 mmHg 62%
    11:00 +29°C° 0.1 mm 1 mps 734 mmHg 58%
    12:00 +29°C° 0.1 mm 1 mps 734 mmHg 55%
    13:00 +30°C° 0.1 mm 2 mps 733 mmHg 52%
    14:00 +29°C° 0.8 mm 2 mps 733 mmHg 58%
    15:00 +28°C° 0.8 mm 2 mps 733 mmHg 64%
    16:00 +27°C° 0.8 mm 2 mps 733 mmHg 70%
    17:00 +25°C° 0.5 mm 2 mps 733 mmHg 74%
    18:00 +23°C° 0.5 mm 2 mps 733 mmHg 79%
    19:00 +20°C° 0.5 mm 2 mps 732 mmHg 83%
    20:00 +19°C° 0 mm 2 mps 733 mmHg 81%
    21:00 +20°C° 0 mm 1 mps 733 mmHg 79%
    22:00 +20°C° 0 mm 1 mps 733 mmHg 77%
    23:00 +20°C° 0 mm 1 mps 733 mmHg 76%

    20 June, Thursday

    Time Temperature Precipitation Wind Pressure Humidity
    00:00 +19°C° 0 mm 1 mps 733 mmHg 75%
    01:00 +19°C° 0 mm 1 mps 733 mmHg 74%
    02:00 +19°C° 0 mm 1 mps 733 mmHg 75%
    03:00 +19°C° 0 mm 1 mps 733 mmHg 76%
    04:00 +18°C° 0 mm 1 mps 733 mmHg 77%
    05:00 +19°C° 0.1 mm 1 mps 734 mmHg 76%
    06:00 +21°C° 0.1 mm 1 mps 734 mmHg 75%
    07:00 +22°C° 0.1 mm 1 mps 734 mmHg 75%
    08:00 +24°C° 0 mm 2 mps 734 mmHg 69%
    09:00 +26°C° 0 mm 2 mps 734 mmHg 64%
    10:00 +27°C° 0 mm 2 mps 734 mmHg 58%
    11:00 +28°C° 0 mm 2 mps 734 mmHg 55%
    12:00 +30°C° 0 mm 1 mps 734 mmHg 51%
    13:00 +31°C° 0 mm 1 mps 733 mmHg 47%
    14:00 +31°C° 0 mm 2 mps 733 mmHg 47%
    15:00 +30°C° 0 mm 2 mps 733 mmHg 48%
    16:00 +30°C° 0 mm 2 mps 733 mmHg 48%
    17:00 +29°C° 0 mm 2 mps 733 mmHg 57%
    18:00 +27°C° 0 mm 2 mps 733 mmHg 66%
    19:00 +25°C° 0 mm 2 mps 733 mmHg 75%
    20:00 +24°C° 0 mm 2 mps 733 mmHg 77%
    21:00 +23°C° 0 mm 2 mps 733 mmHg 79%
    22:00 +20°C° 0 mm 2 mps 733 mmHg 81%
    23:00 +20°C° 0 mm 2 mps 733 mmHg 86%

    21 June, Friday

    Time Temperature Precipitation Wind Pressure Humidity
    00:00 +19°C° 0 mm 2 mps 733 mmHg 90%
    01:00 +19°C° 0 mm 3 mps 734 mmHg 95%
    02:00 +19°C° 0 mm 3 mps 734 mmHg 94%
    03:00 +19°C° 0 mm 3 mps 734 mmHg 94%
    04:00 +18°C° 0 mm 3 mps 734 mmHg 93%
    05:00 +19°C° 0 mm 2 mps 734 mmHg 91%
    06:00 +20°C° 0 mm 2 mps 734 mmHg 88%
    07:00 +20°C° 0 mm 2 mps 735 mmHg 86%
    08:00 +21°C° 0 mm 2 mps 735 mmHg 81%
    09:00 +24°C° 0 mm 2 mps 735 mmHg 76%
    10:00 +25°C° 0 mm 2 mps 735 mmHg 71%
    11:00 +26°C° 0.1 mm 2 mps 734 mmHg 66%
    12:00 +27°C° 0.1 mm 1 mps 734 mmHg 62%
    13:00 +28°C° 0.1 mm 1 mps 734 mmHg 57%
    14:00 +28°C° 0.4 mm 1 mps 733 mmHg 61%
    15:00 +28°C° 0.4 mm 1 mps 733 mmHg 65%
    16:00 +27°C° 0.4 mm 1 mps 733 mmHg 69%
    17:00 +26°C° 0.6 mm 1 mps 733 mmHg 75%
    18:00 +25°C° 0.6 mm 1 mps 732 mmHg 81%
    19:00 +24°C° 0.6 mm 1 mps 732 mmHg 87%
    20:00 +23°C° 0.8 mm 1 mps 732 mmHg 89%
    21:00 +22°C° 0.8 mm 1 mps 733 mmHg 90%
    22:00 +20°C° 0.8 mm 1 mps 733 mmHg 92%
    23:00 +20°C° 0.7 mm 1 mps 733 mmHg 93%

    22 June, Saturday

    Time Temperature Precipitation Wind Pressure Humidity
    00:00 +19°C° 0.7 mm 1 mps 733 mmHg 94%
    01:00 +19°C° 0.7 mm 1 mps 733 mmHg 95%
    02:00 +19°C° 0.1 mm 1 mps 733 mmHg 96%
    03:00 +18°C° 0.1 mm 2 mps 733 mmHg 97%
    04:00 +18°C° 0.1 mm 2 mps 733 mmHg 98%
    05:00 +18°C° 0 mm 2 mps 733 mmHg 96%
    06:00 +19°C° 0 mm 2 mps 733 mmHg 95%
    07:00 +19°C° 0 mm 2 mps 733 mmHg 93%
    08:00 +20°C° 0 mm 3 mps 733 mmHg 85%
    09:00 +22°C° 0 mm 3 mps 733 mmHg 77%
    10:00 +23°C° 0 mm 4 mps 733 mmHg 69%
    11:00 +25°C° 0 mm 4 mps 733 mmHg 67%
    12:00 +25°C° 0 mm 4 mps 733 mmHg 65%
    13:00 +26°C° 0 mm 5 mps 733 mmHg 63%
    14:00 +25°C° 0.2 mm 4 mps 733 mmHg 67%
    15:00 +24°C° 0.2 mm 3 mps 733 mmHg 71%
    16:00 +22°C° 0.2 mm 3 mps 733 mmHg 74%
    17:00 +23°C° 0.1 mm 2 mps 733 mmHg 78%
    18:00 +21°C° 0.1 mm 2 mps 734 mmHg 82%
    19:00 +20°C° 0.1 mm 2 mps 734 mmHg 85%
    20:00 +19°C° 0.1 mm 1 mps 734 mmHg 88%
    21:00 +18°C° 0.1 mm 1 mps 734 mmHg 92%
    22:00 +14°C° 0.1 mm 0 mps 735 mmHg 95%
    23:00 +14°C° 0 mm 0 mps 735 mmHg 95%
    Show more